Tracking 19192 objects as of 19-Jun-2018
HD Live streaming from Space Station
objects crossing your sky now

FENGYUN 1C DEB

Track FENGYUN 1C DEB now!
10-day predictions


NORAD ID: 35142
Int'l Code: 1999-025DLW
Perigee: 857.7 km
Apogee: 1,019.8 km
Inclination: 99.1 °
Period: 103.7 minutes
Semi major axis: 7309 km
RCS: 0.0035 m2 (small)
Launch date: May 10, 1999
Source: People's Republic of China (PRC)
Launch site: Taiyaun Space Center, China (TSC)

Note: This is SATELLITE DEBRIS
aabbcc
Your satellite tracking list
Your tracking list is empty




NASA's NSSDC Master Catalog

Two Line Element Set (TLE):
1 35142U 99025DLW 18169.29981689  .00000003  00000-0  36209-4 0  9994
2 35142  99.1401 199.9166 0110902  69.2004 349.6930 13.89148396478551
Source of the keplerian elements: AFSPC